locationName,lineName,date,time,countIn,countOut
��Ƃ�̍L��,�C�ݕ���,2022/8/1,0:00,2,0
��Ƃ�̍L��,�C�ݕ���,2022/8/1,1:00,0,1
��Ƃ�̍L��,�C�ݕ���,2022/8/1,2:00,1,0
��Ƃ�̍L��,�C�ݕ���,2022/8/1,3:00,0,1
��Ƃ�̍L��,�C�ݕ���,2022/8/1,4:00,1,0
��Ƃ�̍L��,�C�ݕ���,2022/8/1,5:00,5,3
��Ƃ�̍L��,�C�ݕ���,2022/8/1,6:00,6,4
��Ƃ�̍L��,�C�ݕ���,2022/8/1,7:00,15,10
��Ƃ�̍L��,�C�ݕ���,2022/8/1,8:00,32,22
��Ƃ�̍L��,�C�ݕ���,2022/8/1,9:00,61,29
��Ƃ�̍L��,�C�ݕ���,2022/8/1,10:00,68,23
��Ƃ�̍L��,�C�ݕ���,2022/8/1,11:00,65,31
��Ƃ�̍L��,�C�ݕ���,2022/8/1,12:00,75,46
��Ƃ�̍L��,�C�ݕ���,2022/8/1,13:00,73,42
��Ƃ�̍L��,�C�ݕ���,2022/8/1,14:00,69,26
��Ƃ�̍L��,�C�ݕ���,2022/8/1,15:00,62,35
��Ƃ�̍L��,�C�ݕ���,2022/8/1,16:00,42,32
��Ƃ�̍L��,�C�ݕ���,2022/8/1,17:00,64,28
��Ƃ�̍L��,�C�ݕ���,2022/8/1,18:00,41,25
��Ƃ�̍L��,�C�ݕ���,2022/8/1,19:00,31,6
��Ƃ�̍L��,�C�ݕ���,2022/8/1,20:00,12,13
��Ƃ�̍L��,�C�ݕ���,2022/8/1,21:00,19,8
��Ƃ�̍L��,�C�ݕ���,2022/8/1,22:00,2,1
��Ƃ�̍L��,�C�ݕ���,2022/8/1,23:00,4,0
��Ƃ�̍L��,�C�ݕ���,2022/8/2,0:00,9,2
��Ƃ�̍L��,�C�ݕ���,2022/8/2,1:00,0,0
��Ƃ�̍L��,�C�ݕ���,2022/8/2,2:00,0,0
��Ƃ�̍L��,�C�ݕ���,2022/8/2,3:00,5,0
��Ƃ�̍L��,�C�ݕ���,2022/8/2,4:00,1,1
��Ƃ�̍L��,�C�ݕ���,2022/8/2,5:00,1,8
��Ƃ�̍L��,�C�ݕ���,2022/8/2,6:00,12,7
��Ƃ�̍L��,�C�ݕ���,2022/8/2,7:00,3,6
��Ƃ�̍L��,�C�ݕ���,2022/8/2,8:00,23,25
��Ƃ�̍L��,�C�ݕ���,2022/8/2,9:00,43,26
��Ƃ�̍L��,�C�ݕ���,2022/8/2,10:00,61,34
��Ƃ�̍L��,�C�ݕ���,2022/8/2,11:00,57,35
��Ƃ�̍L��,�C�ݕ���,2022/8/2,12:00,81,38
��Ƃ�̍L��,�C�ݕ���,2022/8/2,13:00,57,32
��Ƃ�̍L��,�C�ݕ���,2022/8/2,14:00,91,68
��Ƃ�̍L��,�C�ݕ���,2022/8/2,15:00,85,62
��Ƃ�̍L��,�C�ݕ���,2022/8/2,16:00,49,39
��Ƃ�̍L��,�C�ݕ���,2022/8/2,17:00,62,35
��Ƃ�̍L��,�C�ݕ���,2022/8/2,18:00,30,24
��Ƃ�̍L��,�C�ݕ���,2022/8/2,19:00,23,15
��Ƃ�̍L��,�C�ݕ���,2022/8/2,20:00,6,7
��Ƃ�̍L��,�C�ݕ���,2022/8/2,21:00,20,3
��Ƃ�̍L��,�C�ݕ���,2022/8/2,22:00,7,1
��Ƃ�̍L��,�C�ݕ���,2022/8/2,23:00,1,4
��Ƃ�̍L��,�C�ݕ���,2022/8/3,0:00,0,1
��Ƃ�̍L��,�C�ݕ���,2022/8/3,1:00,0,0
��Ƃ�̍L��,�C�ݕ���,2022/8/3,2:00,1,0
��Ƃ�̍L��,�C�ݕ���,2022/8/3,3:00,0,0
��Ƃ�̍L��,�C�ݕ���,2022/8/3,4:00,1,1
��Ƃ�̍L��,�C�ݕ���,2022/8/3,5:00,2,6
��Ƃ�̍L��,�C�ݕ���,2022/8/3,6:00,14,5
��Ƃ�̍L��,�C�ݕ���,2022/8/3,7:00,8,8
��Ƃ�̍L��,�C�ݕ���,2022/8/3,8:00,21,17
��Ƃ�̍L��,�C�ݕ���,2022/8/3,9:00,32,13
��Ƃ�̍L��,�C�ݕ���,2022/8/3,10:00,57,28
��Ƃ�̍L��,�C�ݕ���,2022/8/3,11:00,72,37
��Ƃ�̍L��,�C�ݕ���,2022/8/3,12:00,94,35
��Ƃ�̍L��,�C�ݕ���,2022/8/3,13:00,71,33
��Ƃ�̍L��,�C�ݕ���,2022/8/3,14:00,55,50
��Ƃ�̍L��,�C�ݕ���,2022/8/3,15:00,70,35
��Ƃ�̍L��,�C�ݕ���,2022/8/3,16:00,63,42
��Ƃ�̍L��,�C�ݕ���,2022/8/3,17:00,72,35
��Ƃ�̍L��,�C�ݕ���,2022/8/3,18:00,44,18
��Ƃ�̍L��,�C�ݕ���,2022/8/3,19:00,18,14
��Ƃ�̍L��,�C�ݕ���,2022/8/3,20:00,20,10
��Ƃ�̍L��,�C�ݕ���,2022/8/3,21:00,16,9
��Ƃ�̍L��,�C�ݕ���,2022/8/3,22:00,6,2
��Ƃ�̍L��,�C�ݕ���,2022/8/3,23:00,0,1
��Ƃ�̍L��,�C�ݕ���,2022/8/4,0:00,3,0
��Ƃ�̍L��,�C�ݕ���,2022/8/4,1:00,0,1
��Ƃ�̍L��,�C�ݕ���,2022/8/4,2:00,0,2
��Ƃ�̍L��,�C�ݕ���,2022/8/4,3:00,2,1
��Ƃ�̍L��,�C�ݕ���,2022/8/4,4:00,2,1
��Ƃ�̍L��,�C�ݕ���,2022/8/4,5:00,2,6
��Ƃ�̍L��,�C�ݕ���,2022/8/4,6:00,5,7
��Ƃ�̍L��,�C�ݕ���,2022/8/4,7:00,8,6
��Ƃ�̍L��,�C�ݕ���,2022/8/4,8:00,24,24
��Ƃ�̍L��,�C�ݕ���,2022/8/4,9:00,48,29
��Ƃ�̍L��,�C�ݕ���,2022/8/4,10:00,57,22
��Ƃ�̍L��,�C�ݕ���,2022/8/4,11:00,61,42
��Ƃ�̍L��,�C�ݕ���,2022/8/4,12:00,59,34
��Ƃ�̍L��,�C�ݕ���,2022/8/4,13:00,58,26
��Ƃ�̍L��,�C�ݕ���,2022/8/4,14:00,43,33
��Ƃ�̍L��,�C�ݕ���,2022/8/4,15:00,59,47
��Ƃ�̍L��,�C�ݕ���,2022/8/4,16:00,45,32
��Ƃ�̍L��,�C�ݕ���,2022/8/4,17:00,48,13
��Ƃ�̍L��,�C�ݕ���,2022/8/4,18:00,28,15
��Ƃ�̍L��,�C�ݕ���,2022/8/4,19:00,16,12
��Ƃ�̍L��,�C�ݕ���,2022/8/4,20:00,18,6
��Ƃ�̍L��,�C�ݕ���,2022/8/4,21:00,13,12
��Ƃ�̍L��,�C�ݕ���,2022/8/4,22:00,7,8
��Ƃ�̍L��,�C�ݕ���,2022/8/4,23:00,0,3
��Ƃ�̍L��,�C�ݕ���,2022/8/5,0:00,0,0
��Ƃ�̍L��,�C�ݕ���,2022/8/5,1:00,1,5
��Ƃ�̍L��,�C�ݕ���,2022/8/5,2:00,0,0
��Ƃ�̍L��,�C�ݕ���,2022/8/5,3:00,2,0
��Ƃ�̍L��,�C�ݕ���,2022/8/5,4:00,2,1
��Ƃ�̍L��,�C�ݕ���,2022/8/5,5:00,5,4
��Ƃ�̍L��,�C�ݕ���,2022/8/5,6:00,8,8
��Ƃ�̍L��,�C�ݕ���,2022/8/5,7:00,3,7
��Ƃ�̍L��,�C�ݕ���,2022/8/5,8:00,24,25
��Ƃ�̍L��,�C�ݕ���,2022/8/5,9:00,40,26
��Ƃ�̍L��,�C�ݕ���,2022/8/5,10:00,71,48
��Ƃ�̍L��,�C�ݕ���,2022/8/5,11:00,86,44
��Ƃ�̍L��,�C�ݕ���,2022/8/5,12:00,112,49
��Ƃ�̍L��,�C�ݕ���,2022/8/5,13:00,80,57
��Ƃ�̍L��,�C�ݕ���,2022/8/5,14:00,64,39
��Ƃ�̍L��,�C�ݕ���,2022/8/5,15:00,78,47
��Ƃ�̍L��,�C�ݕ���,2022/8/5,16:00,72,36
��Ƃ�̍L��,�C�ݕ���,2022/8/5,17:00,85,48
��Ƃ�̍L��,�C�ݕ���,2022/8/5,18:00,46,36
��Ƃ�̍L��,�C�ݕ���,2022/8/5,19:00,26,15
��Ƃ�̍L��,�C�ݕ���,2022/8/5,20:00,18,9
��Ƃ�̍L��,�C�ݕ���,2022/8/5,21:00,23,7
��Ƃ�̍L��,�C�ݕ���,2022/8/5,22:00,6,7
��Ƃ�̍L��,�C�ݕ���,2022/8/5,23:00,7,0
��Ƃ�̍L��,�C�ݕ���,2022/8/6,0:00,8,1
��Ƃ�̍L��,�C�ݕ���,2022/8/6,1:00,0,1
��Ƃ�̍L��,�C�ݕ���,2022/8/6,2:00,1,0
��Ƃ�̍L��,�C�ݕ���,2022/8/6,3:00,0,1
��Ƃ�̍L��,�C�ݕ���,2022/8/6,4:00,0,0
��Ƃ�̍L��,�C�ݕ���,2022/8/6,5:00,4,4
��Ƃ�̍L��,�C�ݕ���,2022/8/6,6:00,4,1
��Ƃ�̍L��,�C�ݕ���,2022/8/6,7:00,8,5
��Ƃ�̍L��,�C�ݕ���,2022/8/6,8:00,32,19
��Ƃ�̍L��,�C�ݕ���,2022/8/6,9:00,37,22
��Ƃ�̍L��,�C�ݕ���,2022/8/6,10:00,74,31
��Ƃ�̍L��,�C�ݕ���,2022/8/6,11:00,76,54
��Ƃ�̍L��,�C�ݕ���,2022/8/6,12:00,115,62
��Ƃ�̍L��,�C�ݕ���,2022/8/6,13:00,77,59
��Ƃ�̍L��,�C�ݕ���,2022/8/6,14:00,111,63
��Ƃ�̍L��,�C�ݕ���,2022/8/6,15:00,87,35
��Ƃ�̍L��,�C�ݕ���,2022/8/6,16:00,61,54
��Ƃ�̍L��,�C�ݕ���,2022/8/6,17:00,106,91
��Ƃ�̍L��,�C�ݕ���,2022/8/6,18:00,30,33
��Ƃ�̍L��,�C�ݕ���,2022/8/6,19:00,27,24
��Ƃ�̍L��,�C�ݕ���,2022/8/6,20:00,40,13
��Ƃ�̍L��,�C�ݕ���,2022/8/6,21:00,16,7
��Ƃ�̍L��,�C�ݕ���,2022/8/6,22:00,11,3
��Ƃ�̍L��,�C�ݕ���,2022/8/6,23:00,5,1
��Ƃ�̍L��,�C�ݕ���,2022/8/7,0:00,6,0
��Ƃ�̍L��,�C�ݕ���,2022/8/7,1:00,0,0
��Ƃ�̍L��,�C�ݕ���,2022/8/7,2:00,1,1
��Ƃ�̍L��,�C�ݕ���,2022/8/7,3:00,0,0
��Ƃ�̍L��,�C�ݕ���,2022/8/7,4:00,1,0
��Ƃ�̍L��,�C�ݕ���,2022/8/7,5:00,5,7
��Ƃ�̍L��,�C�ݕ���,2022/8/7,6:00,18,6
��Ƃ�̍L��,�C�ݕ���,2022/8/7,7:00,10,2
��Ƃ�̍L��,�C�ݕ���,2022/8/7,8:00,16,8
��Ƃ�̍L��,�C�ݕ���,2022/8/7,9:00,26,13
��Ƃ�̍L��,�C�ݕ���,2022/8/7,10:00,43,43
��Ƃ�̍L��,�C�ݕ���,2022/8/7,11:00,73,55
��Ƃ�̍L��,�C�ݕ���,2022/8/7,12:00,83,86
��Ƃ�̍L��,�C�ݕ���,2022/8/7,13:00,95,68
��Ƃ�̍L��,�C�ݕ���,2022/8/7,14:00,101,84
��Ƃ�̍L��,�C�ݕ���,2022/8/7,15:00,79,58
��Ƃ�̍L��,�C�ݕ���,2022/8/7,16:00,63,33
��Ƃ�̍L��,�C�ݕ���,2022/8/7,17:00,85,96
��Ƃ�̍L��,�C�ݕ���,2022/8/7,18:00,20,16
��Ƃ�̍L��,�C�ݕ���,2022/8/7,19:00,22,12
��Ƃ�̍L��,�C�ݕ���,2022/8/7,20:00,13,8
��Ƃ�̍L��,�C�ݕ���,2022/8/7,21:00,11,6
��Ƃ�̍L��,�C�ݕ���,2022/8/7,22:00,3,2
��Ƃ�̍L��,�C�ݕ���,2022/8/7,23:00,1,0
��Ƃ�̍L��,�C�ݕ���,2022/8/8,0:00,1,0
��Ƃ�̍L��,�C�ݕ���,2022/8/8,1:00,3,1
��Ƃ�̍L��,�C�ݕ���,2022/8/8,2:00,0,0
��Ƃ�̍L��,�C�ݕ���,2022/8/8,3:00,2,0
��Ƃ�̍L��,�C�ݕ���,2022/8/8,4:00,0,1
��Ƃ�̍L��,�C�ݕ���,2022/8/8,5:00,2,4
��Ƃ�̍L��,�C�ݕ���,2022/8/8,6:00,12,5
��Ƃ�̍L��,�C�ݕ���,2022/8/8,7:00,10,6
��Ƃ�̍L��,�C�ݕ���,2022/8/8,8:00,23,20
��Ƃ�̍L��,�C�ݕ���,2022/8/8,9:00,47,33
��Ƃ�̍L��,�C�ݕ���,2022/8/8,10:00,55,35
��Ƃ�̍L��,�C�ݕ���,2022/8/8,11:00,80,33
��Ƃ�̍L��,�C�ݕ���,2022/8/8,12:00,87,65
��Ƃ�̍L��,�C�ݕ���,2022/8/8,13:00,128,60
��Ƃ�̍L��,�C�ݕ���,2022/8/8,14:00,91,42
��Ƃ�̍L��,�C�ݕ���,2022/8/8,15:00,72,64
��Ƃ�̍L��,�C�ݕ���,2022/8/8,16:00,50,34
��Ƃ�̍L��,�C�ݕ���,2022/8/8,17:00,68,42
��Ƃ�̍L��,�C�ݕ���,2022/8/8,18:00,43,28
��Ƃ�̍L��,�C�ݕ���,2022/8/8,19:00,26,14
��Ƃ�̍L��,�C�ݕ���,2022/8/8,20:00,21,5
��Ƃ�̍L��,�C�ݕ���,2022/8/8,21:00,19,13
��Ƃ�̍L��,�C�ݕ���,2022/8/8,22:00,8,7
��Ƃ�̍L��,�C�ݕ���,2022/8/8,23:00,7,1
��Ƃ�̍L��,�C�ݕ���,2022/8/9,0:00,1,0
��Ƃ�̍L��,�C�ݕ���,2022/8/9,1:00,0,0
��Ƃ�̍L��,�C�ݕ���,2022/8/9,2:00,2,0
��Ƃ�̍L��,�C�ݕ���,2022/8/9,3:00,0,1
��Ƃ�̍L��,�C�ݕ���,2022/8/9,4:00,1,0
��Ƃ�̍L��,�C�ݕ���,2022/8/9,5:00,4,5
��Ƃ�̍L��,�C�ݕ���,2022/8/9,6:00,6,6
��Ƃ�̍L��,�C�ݕ���,2022/8/9,7:00,10,7
��Ƃ�̍L��,�C�ݕ���,2022/8/9,8:00,24,29
��Ƃ�̍L��,�C�ݕ���,2022/8/9,9:00,56,33
��Ƃ�̍L��,�C�ݕ���,2022/8/9,10:00,77,36
��Ƃ�̍L��,�C�ݕ���,2022/8/9,11:00,103,55
��Ƃ�̍L��,�C�ݕ���,2022/8/9,12:00,78,50
��Ƃ�̍L��,�C�ݕ���,2022/8/9,13:00,96,62
��Ƃ�̍L��,�C�ݕ���,2022/8/9,14:00,103,54
��Ƃ�̍L��,�C�ݕ���,2022/8/9,15:00,87,62
��Ƃ�̍L��,�C�ݕ���,2022/8/9,16:00,80,38
��Ƃ�̍L��,�C�ݕ���,2022/8/9,17:00,57,31
��Ƃ�̍L��,�C�ݕ���,2022/8/9,18:00,36,19
��Ƃ�̍L��,�C�ݕ���,2022/8/9,19:00,26,14
��Ƃ�̍L��,�C�ݕ���,2022/8/9,20:00,24,11
��Ƃ�̍L��,�C�ݕ���,2022/8/9,21:00,13,7
��Ƃ�̍L��,�C�ݕ���,2022/8/9,22:00,8,9
��Ƃ�̍L��,�C�ݕ���,2022/8/9,23:00,5,0
��Ƃ�̍L��,�C�ݕ���,2022/8/10,0:00,3,0
��Ƃ�̍L��,�C�ݕ���,2022/8/10,1:00,1,1
��Ƃ�̍L��,�C�ݕ���,2022/8/10,2:00,0,0
��Ƃ�̍L��,�C�ݕ���,2022/8/10,3:00,0,1
��Ƃ�̍L��,�C�ݕ���,2022/8/10,4:00,1,1
��Ƃ�̍L��,�C�ݕ���,2022/8/10,5:00,2,1
��Ƃ�̍L��,�C�ݕ���,2022/8/10,6:00,7,7
��Ƃ�̍L��,�C�ݕ���,2022/8/10,7:00,12,8
��Ƃ�̍L��,�C�ݕ���,2022/8/10,8:00,24,20
��Ƃ�̍L��,�C�ݕ���,2022/8/10,9:00,75,26
��Ƃ�̍L��,�C�ݕ���,2022/8/10,10:00,77,48
��Ƃ�̍L��,�C�ݕ���,2022/8/10,11:00,105,56
��Ƃ�̍L��,�C�ݕ���,2022/8/10,12:00,117,85
��Ƃ�̍L��,�C�ݕ���,2022/8/10,13:00,81,67
��Ƃ�̍L��,�C�ݕ���,2022/8/10,14:00,92,50
��Ƃ�̍L��,�C�ݕ���,2022/8/10,15:00,107,55
��Ƃ�̍L��,�C�ݕ���,2022/8/10,16:00,106,112
��Ƃ�̍L��,�C�ݕ���,2022/8/10,17:00,73,43
��Ƃ�̍L��,�C�ݕ���,2022/8/10,18:00,44,38
��Ƃ�̍L��,�C�ݕ���,2022/8/10,19:00,23,17
��Ƃ�̍L��,�C�ݕ���,2022/8/10,20:00,23,9
��Ƃ�̍L��,�C�ݕ���,2022/8/10,21:00,17,12
��Ƃ�̍L��,�C�ݕ���,2022/8/10,22:00,12,8
��Ƃ�̍L��,�C�ݕ���,2022/8/10,23:00,8,4
��Ƃ�̍L��,�C�ݕ���,2022/8/11,0:00,6,4
��Ƃ�̍L��,�C�ݕ���,2022/8/11,1:00,1,2
��Ƃ�̍L��,�C�ݕ���,2022/8/11,2:00,0,2
��Ƃ�̍L��,�C�ݕ���,2022/8/11,3:00,0,0
��Ƃ�̍L��,�C�ݕ���,2022/8/11,4:00,3,2
��Ƃ�̍L��,�C�ݕ���,2022/8/11,5:00,3,2
��Ƃ�̍L��,�C�ݕ���,2022/8/11,6:00,15,4
��Ƃ�̍L��,�C�ݕ���,2022/8/11,7:00,10,12
��Ƃ�̍L��,�C�ݕ���,2022/8/11,8:00,20,7
��Ƃ�̍L��,�C�ݕ���,2022/8/11,9:00,39,21
��Ƃ�̍L��,�C�ݕ���,2022/8/11,10:00,70,32
��Ƃ�̍L��,�C�ݕ���,2022/8/11,11:00,137,84
��Ƃ�̍L��,�C�ݕ���,2022/8/11,12:00,154,98
��Ƃ�̍L��,�C�ݕ���,2022/8/11,13:00,191,101
��Ƃ�̍L��,�C�ݕ���,2022/8/11,14:00,138,100
��Ƃ�̍L��,�C�ݕ���,2022/8/11,15:00,139,85
��Ƃ�̍L��,�C�ݕ���,2022/8/11,16:00,68,61
��Ƃ�̍L��,�C�ݕ���,2022/8/11,17:00,71,88
��Ƃ�̍L��,�C�ݕ���,2022/8/11,18:00,52,53
��Ƃ�̍L��,�C�ݕ���,2022/8/11,19:00,38,24
��Ƃ�̍L��,�C�ݕ���,2022/8/11,20:00,25,12
��Ƃ�̍L��,�C�ݕ���,2022/8/11,21:00,21,9
��Ƃ�̍L��,�C�ݕ���,2022/8/11,22:00,18,5
��Ƃ�̍L��,�C�ݕ���,2022/8/11,23:00,2,0
��Ƃ�̍L��,�C�ݕ���,2022/8/12,0:00,1,1
��Ƃ�̍L��,�C�ݕ���,2022/8/12,1:00,0,2
��Ƃ�̍L��,�C�ݕ���,2022/8/12,2:00,3,1
��Ƃ�̍L��,�C�ݕ���,2022/8/12,3:00,1,1
��Ƃ�̍L��,�C�ݕ���,2022/8/12,4:00,1,0
��Ƃ�̍L��,�C�ݕ���,2022/8/12,5:00,2,2
��Ƃ�̍L��,�C�ݕ���,2022/8/12,6:00,16,5
��Ƃ�̍L��,�C�ݕ���,2022/8/12,7:00,5,12
��Ƃ�̍L��,�C�ݕ���,2022/8/12,8:00,30,18
��Ƃ�̍L��,�C�ݕ���,2022/8/12,9:00,59,32
��Ƃ�̍L��,�C�ݕ���,2022/8/12,10:00,112,68
��Ƃ�̍L��,�C�ݕ���,2022/8/12,11:00,203,87
��Ƃ�̍L��,�C�ݕ���,2022/8/12,12:00,190,119
��Ƃ�̍L��,�C�ݕ���,2022/8/12,13:00,171,113
��Ƃ�̍L��,�C�ݕ���,2022/8/12,14:00,189,90
��Ƃ�̍L��,�C�ݕ���,2022/8/12,15:00,147,94
��Ƃ�̍L��,�C�ݕ���,2022/8/12,16:00,153,164
��Ƃ�̍L��,�C�ݕ���,2022/8/12,17:00,87,57
��Ƃ�̍L��,�C�ݕ���,2022/8/12,18:00,77,41
��Ƃ�̍L��,�C�ݕ���,2022/8/12,19:00,32,14
��Ƃ�̍L��,�C�ݕ���,2022/8/12,20:00,24,9
��Ƃ�̍L��,�C�ݕ���,2022/8/12,21:00,69,18
��Ƃ�̍L��,�C�ݕ���,2022/8/12,22:00,13,7
��Ƃ�̍L��,�C�ݕ���,2022/8/12,23:00,7,5
��Ƃ�̍L��,�C�ݕ���,2022/8/13,0:00,1,1
��Ƃ�̍L��,�C�ݕ���,2022/8/13,1:00,1,0
��Ƃ�̍L��,�C�ݕ���,2022/8/13,2:00,0,0
��Ƃ�̍L��,�C�ݕ���,2022/8/13,3:00,0,0
��Ƃ�̍L��,�C�ݕ���,2022/8/13,4:00,0,0
��Ƃ�̍L��,�C�ݕ���,2022/8/13,5:00,7,6
��Ƃ�̍L��,�C�ݕ���,2022/8/13,6:00,10,6
��Ƃ�̍L��,�C�ݕ���,2022/8/13,7:00,15,6
��Ƃ�̍L��,�C�ݕ���,2022/8/13,8:00,14,5
��Ƃ�̍L��,�C�ݕ���,2022/8/13,9:00,66,34
��Ƃ�̍L��,�C�ݕ���,2022/8/13,10:00,76,50
��Ƃ�̍L��,�C�ݕ���,2022/8/13,11:00,135,86
��Ƃ�̍L��,�C�ݕ���,2022/8/13,12:00,207,129
��Ƃ�̍L��,�C�ݕ���,2022/8/13,13:00,208,128
��Ƃ�̍L��,�C�ݕ���,2022/8/13,14:00,179,95
��Ƃ�̍L��,�C�ݕ���,2022/8/13,15:00,163,101
��Ƃ�̍L��,�C�ݕ���,2022/8/13,16:00,173,139
��Ƃ�̍L��,�C�ݕ���,2022/8/13,17:00,93,70
��Ƃ�̍L��,�C�ݕ���,2022/8/13,18:00,57,55
��Ƃ�̍L��,�C�ݕ���,2022/8/13,19:00,26,24
��Ƃ�̍L��,�C�ݕ���,2022/8/13,20:00,76,45
��Ƃ�̍L��,�C�ݕ���,2022/8/13,21:00,18,8
��Ƃ�̍L��,�C�ݕ���,2022/8/13,22:00,13,3
��Ƃ�̍L��,�C�ݕ���,2022/8/13,23:00,5,1
��Ƃ�̍L��,�C�ݕ���,2022/8/14,0:00,10,3
��Ƃ�̍L��,�C�ݕ���,2022/8/14,1:00,3,1
��Ƃ�̍L��,�C�ݕ���,2022/8/14,2:00,0,3
��Ƃ�̍L��,�C�ݕ���,2022/8/14,3:00,1,1
��Ƃ�̍L��,�C�ݕ���,2022/8/14,4:00,1,0
��Ƃ�̍L��,�C�ݕ���,2022/8/14,5:00,6,9
��Ƃ�̍L��,�C�ݕ���,2022/8/14,6:00,8,4
��Ƃ�̍L��,�C�ݕ���,2022/8/14,7:00,7,7
��Ƃ�̍L��,�C�ݕ���,2022/8/14,8:00,21,9
��Ƃ�̍L��,�C�ݕ���,2022/8/14,9:00,45,17
��Ƃ�̍L��,�C�ݕ���,2022/8/14,10:00,95,43
��Ƃ�̍L��,�C�ݕ���,2022/8/14,11:00,161,144
��Ƃ�̍L��,�C�ݕ���,2022/8/14,12:00,216,147
��Ƃ�̍L��,�C�ݕ���,2022/8/14,13:00,203,125
��Ƃ�̍L��,�C�ݕ���,2022/8/14,14:00,197,101
��Ƃ�̍L��,�C�ݕ���,2022/8/14,15:00,153,95
��Ƃ�̍L��,�C�ݕ���,2022/8/14,16:00,130,122
��Ƃ�̍L��,�C�ݕ���,2022/8/14,17:00,100,79
��Ƃ�̍L��,�C�ݕ���,2022/8/14,18:00,39,40
��Ƃ�̍L��,�C�ݕ���,2022/8/14,19:00,21,22
��Ƃ�̍L��,�C�ݕ���,2022/8/14,20:00,20,9
��Ƃ�̍L��,�C�ݕ���,2022/8/14,21:00,9,6
��Ƃ�̍L��,�C�ݕ���,2022/8/14,22:00,12,9
��Ƃ�̍L��,�C�ݕ���,2022/8/14,23:00,8,1
��Ƃ�̍L��,�C�ݕ���,2022/8/15,0:00,2,2
��Ƃ�̍L��,�C�ݕ���,2022/8/15,1:00,0,1
��Ƃ�̍L��,�C�ݕ���,2022/8/15,2:00,0,1
��Ƃ�̍L��,�C�ݕ���,2022/8/15,3:00,0,1
��Ƃ�̍L��,�C�ݕ���,2022/8/15,4:00,1,0
��Ƃ�̍L��,�C�ݕ���,2022/8/15,5:00,3,0
��Ƃ�̍L��,�C�ݕ���,2022/8/15,6:00,9,3
��Ƃ�̍L��,�C�ݕ���,2022/8/15,7:00,7,6
��Ƃ�̍L��,�C�ݕ���,2022/8/15,8:00,17,11
��Ƃ�̍L��,�C�ݕ���,2022/8/15,9:00,32,25
��Ƃ�̍L��,�C�ݕ���,2022/8/15,10:00,105,49
��Ƃ�̍L��,�C�ݕ���,2022/8/15,11:00,161,75
��Ƃ�̍L��,�C�ݕ���,2022/8/15,12:00,184,128
��Ƃ�̍L��,�C�ݕ���,2022/8/15,13:00,170,104
��Ƃ�̍L��,�C�ݕ���,2022/8/15,14:00,170,99
��Ƃ�̍L��,�C�ݕ���,2022/8/15,15:00,116,90
��Ƃ�̍L��,�C�ݕ���,2022/8/15,16:00,98,101
��Ƃ�̍L��,�C�ݕ���,2022/8/15,17:00,73,78
��Ƃ�̍L��,�C�ݕ���,2022/8/15,18:00,39,33
��Ƃ�̍L��,�C�ݕ���,2022/8/15,19:00,24,19
��Ƃ�̍L��,�C�ݕ���,2022/8/15,20:00,22,10
��Ƃ�̍L��,�C�ݕ���,2022/8/15,21:00,14,6
��Ƃ�̍L��,�C�ݕ���,2022/8/15,22:00,10,0
��Ƃ�̍L��,�C�ݕ���,2022/8/15,23:00,1,1
��Ƃ�̍L��,�C�ݕ���,2022/8/16,0:00,3,1
��Ƃ�̍L��,�C�ݕ���,2022/8/16,1:00,0,1
��Ƃ�̍L��,�C�ݕ���,2022/8/16,2:00,2,3
��Ƃ�̍L��,�C�ݕ���,2022/8/16,3:00,0,0
��Ƃ�̍L��,�C�ݕ���,2022/8/16,4:00,2,2
��Ƃ�̍L��,�C�ݕ���,2022/8/16,5:00,4,2
��Ƃ�̍L��,�C�ݕ���,2022/8/16,6:00,5,5
��Ƃ�̍L��,�C�ݕ���,2022/8/16,7:00,4,7
��Ƃ�̍L��,�C�ݕ���,2022/8/16,8:00,24,10
��Ƃ�̍L��,�C�ݕ���,2022/8/16,9:00,54,36
��Ƃ�̍L��,�C�ݕ���,2022/8/16,10:00,105,67
��Ƃ�̍L��,�C�ݕ���,2022/8/16,11:00,164,79
��Ƃ�̍L��,�C�ݕ���,2022/8/16,12:00,171,117
��Ƃ�̍L��,�C�ݕ���,2022/8/16,13:00,155,139
��Ƃ�̍L��,�C�ݕ���,2022/8/16,14:00,186,97
��Ƃ�̍L��,�C�ݕ���,2022/8/16,15:00,193,122
��Ƃ�̍L��,�C�ݕ���,2022/8/16,16:00,84,60
��Ƃ�̍L��,�C�ݕ���,2022/8/16,17:00,55,51
��Ƃ�̍L��,�C�ݕ���,2022/8/16,18:00,43,38
��Ƃ�̍L��,�C�ݕ���,2022/8/16,19:00,20,9
��Ƃ�̍L��,�C�ݕ���,2022/8/16,20:00,12,8
��Ƃ�̍L��,�C�ݕ���,2022/8/16,21:00,8,1
��Ƃ�̍L��,�C�ݕ���,2022/8/16,22:00,2,1
��Ƃ�̍L��,�C�ݕ���,2022/8/16,23:00,1,0
��Ƃ�̍L��,�C�ݕ���,2022/8/17,0:00,0,0
��Ƃ�̍L��,�C�ݕ���,2022/8/17,1:00,1,1
��Ƃ�̍L��,�C�ݕ���,2022/8/17,2:00,3,0
��Ƃ�̍L��,�C�ݕ���,2022/8/17,3:00,1,0
��Ƃ�̍L��,�C�ݕ���,2022/8/17,4:00,2,0
��Ƃ�̍L��,�C�ݕ���,2022/8/17,5:00,1,2
��Ƃ�̍L��,�C�ݕ���,2022/8/17,6:00,12,5
��Ƃ�̍L��,�C�ݕ���,2022/8/17,7:00,9,12
��Ƃ�̍L��,�C�ݕ���,2022/8/17,8:00,20,21
��Ƃ�̍L��,�C�ݕ���,2022/8/17,9:00,32,22
��Ƃ�̍L��,�C�ݕ���,2022/8/17,10:00,59,35
��Ƃ�̍L��,�C�ݕ���,2022/8/17,11:00,69,50
��Ƃ�̍L��,�C�ݕ���,2022/8/17,12:00,103,62
��Ƃ�̍L��,�C�ݕ���,2022/8/17,13:00,100,45
��Ƃ�̍L��,�C�ݕ���,2022/8/17,14:00,89,45
��Ƃ�̍L��,�C�ݕ���,2022/8/17,15:00,85,33
��Ƃ�̍L��,�C�ݕ���,2022/8/17,16:00,57,53
��Ƃ�̍L��,�C�ݕ���,2022/8/17,17:00,79,36
��Ƃ�̍L��,�C�ݕ���,2022/8/17,18:00,50,21
��Ƃ�̍L��,�C�ݕ���,2022/8/17,19:00,17,13
��Ƃ�̍L��,�C�ݕ���,2022/8/17,20:00,14,12
��Ƃ�̍L��,�C�ݕ���,2022/8/17,21:00,14,9
��Ƃ�̍L��,�C�ݕ���,2022/8/17,22:00,4,5
��Ƃ�̍L��,�C�ݕ���,2022/8/17,23:00,3,4
��Ƃ�̍L��,�C�ݕ���,2022/8/18,0:00,0,1
��Ƃ�̍L��,�C�ݕ���,2022/8/18,1:00,0,1
��Ƃ�̍L��,�C�ݕ���,2022/8/18,2:00,0,2
��Ƃ�̍L��,�C�ݕ���,2022/8/18,3:00,0,0
��Ƃ�̍L��,�C�ݕ���,2022/8/18,4:00,1,1
��Ƃ�̍L��,�C�ݕ���,2022/8/18,5:00,1,1
��Ƃ�̍L��,�C�ݕ���,2022/8/18,6:00,2,8
��Ƃ�̍L��,�C�ݕ���,2022/8/18,7:00,11,9
��Ƃ�̍L��,�C�ݕ���,2022/8/18,8:00,20,23
��Ƃ�̍L��,�C�ݕ���,2022/8/18,9:00,42,20
��Ƃ�̍L��,�C�ݕ���,2022/8/18,10:00,81,42
��Ƃ�̍L��,�C�ݕ���,2022/8/18,11:00,91,41
��Ƃ�̍L��,�C�ݕ���,2022/8/18,12:00,120,75
��Ƃ�̍L��,�C�ݕ���,2022/8/18,13:00,96,59
��Ƃ�̍L��,�C�ݕ���,2022/8/18,14:00,121,43
��Ƃ�̍L��,�C�ݕ���,2022/8/18,15:00,83,35
��Ƃ�̍L��,�C�ݕ���,2022/8/18,16:00,59,51
��Ƃ�̍L��,�C�ݕ���,2022/8/18,17:00,82,50
��Ƃ�̍L��,�C�ݕ���,2022/8/18,18:00,40,37
��Ƃ�̍L��,�C�ݕ���,2022/8/18,19:00,42,22
��Ƃ�̍L��,�C�ݕ���,2022/8/18,20:00,18,5
��Ƃ�̍L��,�C�ݕ���,2022/8/18,21:00,14,13
��Ƃ�̍L��,�C�ݕ���,2022/8/18,22:00,7,3
��Ƃ�̍L��,�C�ݕ���,2022/8/18,23:00,7,1
��Ƃ�̍L��,�C�ݕ���,2022/8/19,0:00,3,1
��Ƃ�̍L��,�C�ݕ���,2022/8/19,1:00,1,0
��Ƃ�̍L��,�C�ݕ���,2022/8/19,2:00,0,0
��Ƃ�̍L��,�C�ݕ���,2022/8/19,3:00,0,0
��Ƃ�̍L��,�C�ݕ���,2022/8/19,4:00,4,3
��Ƃ�̍L��,�C�ݕ���,2022/8/19,5:00,3,4
��Ƃ�̍L��,�C�ݕ���,2022/8/19,6:00,9,4
��Ƃ�̍L��,�C�ݕ���,2022/8/19,7:00,7,7
��Ƃ�̍L��,�C�ݕ���,2022/8/19,8:00,39,24
��Ƃ�̍L��,�C�ݕ���,2022/8/19,9:00,45,28
��Ƃ�̍L��,�C�ݕ���,2022/8/19,10:00,83,45
��Ƃ�̍L��,�C�ݕ���,2022/8/19,11:00,144,53
��Ƃ�̍L��,�C�ݕ���,2022/8/19,12:00,113,69
��Ƃ�̍L��,�C�ݕ���,2022/8/19,13:00,111,76
��Ƃ�̍L��,�C�ݕ���,2022/8/19,14:00,108,46
��Ƃ�̍L��,�C�ݕ���,2022/8/19,15:00,79,61
��Ƃ�̍L��,�C�ݕ���,2022/8/19,16:00,110,93
��Ƃ�̍L��,�C�ݕ���,2022/8/19,17:00,83,48
��Ƃ�̍L��,�C�ݕ���,2022/8/19,18:00,43,29
��Ƃ�̍L��,�C�ݕ���,2022/8/19,19:00,24,25
��Ƃ�̍L��,�C�ݕ���,2022/8/19,20:00,19,9
��Ƃ�̍L��,�C�ݕ���,2022/8/19,21:00,19,10
��Ƃ�̍L��,�C�ݕ���,2022/8/19,22:00,12,7
��Ƃ�̍L��,�C�ݕ���,2022/8/19,23:00,4,3
��Ƃ�̍L��,�C�ݕ���,2022/8/20,0:00,1,1
��Ƃ�̍L��,�C�ݕ���,2022/8/20,1:00,2,0
��Ƃ�̍L��,�C�ݕ���,2022/8/20,2:00,0,0
��Ƃ�̍L��,�C�ݕ���,2022/8/20,3:00,0,0
��Ƃ�̍L��,�C�ݕ���,2022/8/20,4:00,2,0
��Ƃ�̍L��,�C�ݕ���,2022/8/20,5:00,5,3
��Ƃ�̍L��,�C�ݕ���,2022/8/20,6:00,5,3
��Ƃ�̍L��,�C�ݕ���,2022/8/20,7:00,8,8
��Ƃ�̍L��,�C�ݕ���,2022/8/20,8:00,35,17
��Ƃ�̍L��,�C�ݕ���,2022/8/20,9:00,41,22
��Ƃ�̍L��,�C�ݕ���,2022/8/20,10:00,81,38
��Ƃ�̍L��,�C�ݕ���,2022/8/20,11:00,84,60
��Ƃ�̍L��,�C�ݕ���,2022/8/20,12:00,120,83
��Ƃ�̍L��,�C�ݕ���,2022/8/20,13:00,116,65
��Ƃ�̍L��,�C�ݕ���,2022/8/20,14:00,133,84
��Ƃ�̍L��,�C�ݕ���,2022/8/20,15:00,82,32
��Ƃ�̍L��,�C�ݕ���,2022/8/20,16:00,47,52
��Ƃ�̍L��,�C�ݕ���,2022/8/20,17:00,54,29
��Ƃ�̍L��,�C�ݕ���,2022/8/20,18:00,34,22
��Ƃ�̍L��,�C�ݕ���,2022/8/20,19:00,30,20
��Ƃ�̍L��,�C�ݕ���,2022/8/20,20:00,12,9
��Ƃ�̍L��,�C�ݕ���,2022/8/20,21:00,16,7
��Ƃ�̍L��,�C�ݕ���,2022/8/20,22:00,8,3
��Ƃ�̍L��,�C�ݕ���,2022/8/20,23:00,1,2
��Ƃ�̍L��,�C�ݕ���,2022/8/21,0:00,0,1
��Ƃ�̍L��,�C�ݕ���,2022/8/21,1:00,1,0
��Ƃ�̍L��,�C�ݕ���,2022/8/21,2:00,0,0
��Ƃ�̍L��,�C�ݕ���,2022/8/21,3:00,1,1
��Ƃ�̍L��,�C�ݕ���,2022/8/21,4:00,1,0
��Ƃ�̍L��,�C�ݕ���,2022/8/21,5:00,2,4
��Ƃ�̍L��,�C�ݕ���,2022/8/21,6:00,6,1
��Ƃ�̍L��,�C�ݕ���,2022/8/21,7:00,2,2
��Ƃ�̍L��,�C�ݕ���,2022/8/21,8:00,4,11
��Ƃ�̍L��,�C�ݕ���,2022/8/21,9:00,22,6
��Ƃ�̍L��,�C�ݕ���,2022/8/21,10:00,63,39
��Ƃ�̍L��,�C�ݕ���,2022/8/21,11:00,96,78
��Ƃ�̍L��,�C�ݕ���,2022/8/21,12:00,143,90
��Ƃ�̍L��,�C�ݕ���,2022/8/21,13:00,139,105
��Ƃ�̍L��,�C�ݕ���,2022/8/21,14:00,108,81
��Ƃ�̍L��,�C�ݕ���,2022/8/21,15:00,77,65
��Ƃ�̍L��,�C�ݕ���,2022/8/21,16:00,84,78
��Ƃ�̍L��,�C�ݕ���,2022/8/21,17:00,62,56
��Ƃ�̍L��,�C�ݕ���,2022/8/21,18:00,24,18
��Ƃ�̍L��,�C�ݕ���,2022/8/21,19:00,25,8
��Ƃ�̍L��,�C�ݕ���,2022/8/21,20:00,9,4
��Ƃ�̍L��,�C�ݕ���,2022/8/21,21:00,6,5
��Ƃ�̍L��,�C�ݕ���,2022/8/21,22:00,8,0
��Ƃ�̍L��,�C�ݕ���,2022/8/21,23:00,3,6
��Ƃ�̍L��,�C�ݕ���,2022/8/22,0:00,2,2
��Ƃ�̍L��,�C�ݕ���,2022/8/22,1:00,0,1
��Ƃ�̍L��,�C�ݕ���,2022/8/22,2:00,2,0
��Ƃ�̍L��,�C�ݕ���,2022/8/22,3:00,0,0
��Ƃ�̍L��,�C�ݕ���,2022/8/22,4:00,3,0
��Ƃ�̍L��,�C�ݕ���,2022/8/22,5:00,4,4
��Ƃ�̍L��,�C�ݕ���,2022/8/22,6:00,2,4
��Ƃ�̍L��,�C�ݕ���,2022/8/22,7:00,11,7
��Ƃ�̍L��,�C�ݕ���,2022/8/22,8:00,33,25
��Ƃ�̍L��,�C�ݕ���,2022/8/22,9:00,40,32
��Ƃ�̍L��,�C�ݕ���,2022/8/22,10:00,68,31
��Ƃ�̍L��,�C�ݕ���,2022/8/22,11:00,89,54
��Ƃ�̍L��,�C�ݕ���,2022/8/22,12:00,91,52
��Ƃ�̍L��,�C�ݕ���,2022/8/22,13:00,81,60
��Ƃ�̍L��,�C�ݕ���,2022/8/22,14:00,77,47
��Ƃ�̍L��,�C�ݕ���,2022/8/22,15:00,61,42
��Ƃ�̍L��,�C�ݕ���,2022/8/22,16:00,45,40
��Ƃ�̍L��,�C�ݕ���,2022/8/22,17:00,54,32
��Ƃ�̍L��,�C�ݕ���,2022/8/22,18:00,41,20
��Ƃ�̍L��,�C�ݕ���,2022/8/22,19:00,18,16
��Ƃ�̍L��,�C�ݕ���,2022/8/22,20:00,17,13
��Ƃ�̍L��,�C�ݕ���,2022/8/22,21:00,10,7
��Ƃ�̍L��,�C�ݕ���,2022/8/22,22:00,7,4
��Ƃ�̍L��,�C�ݕ���,2022/8/22,23:00,2,1
��Ƃ�̍L��,�C�ݕ���,2022/8/23,0:00,1,0
��Ƃ�̍L��,�C�ݕ���,2022/8/23,1:00,1,0
��Ƃ�̍L��,�C�ݕ���,2022/8/23,2:00,0,0
��Ƃ�̍L��,�C�ݕ���,2022/8/23,3:00,1,1
��Ƃ�̍L��,�C�ݕ���,2022/8/23,4:00,1,1
��Ƃ�̍L��,�C�ݕ���,2022/8/23,5:00,4,3
��Ƃ�̍L��,�C�ݕ���,2022/8/23,6:00,6,6
��Ƃ�̍L��,�C�ݕ���,2022/8/23,7:00,14,10
��Ƃ�̍L��,�C�ݕ���,2022/8/23,8:00,21,23
��Ƃ�̍L��,�C�ݕ���,2022/8/23,9:00,59,29
��Ƃ�̍L��,�C�ݕ���,2022/8/23,10:00,64,31
��Ƃ�̍L��,�C�ݕ���,2022/8/23,11:00,78,49
��Ƃ�̍L��,�C�ݕ���,2022/8/23,12:00,107,48
��Ƃ�̍L��,�C�ݕ���,2022/8/23,13:00,69,46
��Ƃ�̍L��,�C�ݕ���,2022/8/23,14:00,48,23
��Ƃ�̍L��,�C�ݕ���,2022/8/23,15:00,60,36
��Ƃ�̍L��,�C�ݕ���,2022/8/23,16:00,69,40
��Ƃ�̍L��,�C�ݕ���,2022/8/23,17:00,46,43
��Ƃ�̍L��,�C�ݕ���,2022/8/23,18:00,38,29
��Ƃ�̍L��,�C�ݕ���,2022/8/23,19:00,35,18
��Ƃ�̍L��,�C�ݕ���,2022/8/23,20:00,17,6
��Ƃ�̍L��,�C�ݕ���,2022/8/23,21:00,10,8
��Ƃ�̍L��,�C�ݕ���,2022/8/23,22:00,9,2
��Ƃ�̍L��,�C�ݕ���,2022/8/23,23:00,0,1
��Ƃ�̍L��,�C�ݕ���,2022/8/24,0:00,1,2
��Ƃ�̍L��,�C�ݕ���,2022/8/24,1:00,1,0
��Ƃ�̍L��,�C�ݕ���,2022/8/24,2:00,1,0
��Ƃ�̍L��,�C�ݕ���,2022/8/24,3:00,1,2
��Ƃ�̍L��,�C�ݕ���,2022/8/24,4:00,3,0
��Ƃ�̍L��,�C�ݕ���,2022/8/24,5:00,3,1
��Ƃ�̍L��,�C�ݕ���,2022/8/24,6:00,6,4
��Ƃ�̍L��,�C�ݕ���,2022/8/24,7:00,4,6
��Ƃ�̍L��,�C�ݕ���,2022/8/24,8:00,25,14
��Ƃ�̍L��,�C�ݕ���,2022/8/24,9:00,24,19
��Ƃ�̍L��,�C�ݕ���,2022/8/24,10:00,48,38
��Ƃ�̍L��,�C�ݕ���,2022/8/24,11:00,85,47
��Ƃ�̍L��,�C�ݕ���,2022/8/24,12:00,103,43
��Ƃ�̍L��,�C�ݕ���,2022/8/24,13:00,81,39
��Ƃ�̍L��,�C�ݕ���,2022/8/24,14:00,79,49
��Ƃ�̍L��,�C�ݕ���,2022/8/24,15:00,70,36
��Ƃ�̍L��,�C�ݕ���,2022/8/24,16:00,88,42
��Ƃ�̍L��,�C�ݕ���,2022/8/24,17:00,53,31
��Ƃ�̍L��,�C�ݕ���,2022/8/24,18:00,37,36
��Ƃ�̍L��,�C�ݕ���,2022/8/24,19:00,32,8
��Ƃ�̍L��,�C�ݕ���,2022/8/24,20:00,18,6
��Ƃ�̍L��,�C�ݕ���,2022/8/24,21:00,23,15
��Ƃ�̍L��,�C�ݕ���,2022/8/24,22:00,7,3
��Ƃ�̍L��,�C�ݕ���,2022/8/24,23:00,1,0
��Ƃ�̍L��,�C�ݕ���,2022/8/25,0:00,1,0
��Ƃ�̍L��,�C�ݕ���,2022/8/25,1:00,1,0
��Ƃ�̍L��,�C�ݕ���,2022/8/25,2:00,2,0
��Ƃ�̍L��,�C�ݕ���,2022/8/25,3:00,0,0
��Ƃ�̍L��,�C�ݕ���,2022/8/25,4:00,4,0
��Ƃ�̍L��,�C�ݕ���,2022/8/25,5:00,2,1
��Ƃ�̍L��,�C�ݕ���,2022/8/25,6:00,4,6
��Ƃ�̍L��,�C�ݕ���,2022/8/25,7:00,11,6
��Ƃ�̍L��,�C�ݕ���,2022/8/25,8:00,17,18
��Ƃ�̍L��,�C�ݕ���,2022/8/25,9:00,35,15
��Ƃ�̍L��,�C�ݕ���,2022/8/25,10:00,52,23
��Ƃ�̍L��,�C�ݕ���,2022/8/25,11:00,61,35
��Ƃ�̍L��,�C�ݕ���,2022/8/25,12:00,66,52
��Ƃ�̍L��,�C�ݕ���,2022/8/25,13:00,87,46
��Ƃ�̍L��,�C�ݕ���,2022/8/25,14:00,46,28
��Ƃ�̍L��,�C�ݕ���,2022/8/25,15:00,46,32
��Ƃ�̍L��,�C�ݕ���,2022/8/25,16:00,46,34
��Ƃ�̍L��,�C�ݕ���,2022/8/25,17:00,50,26
��Ƃ�̍L��,�C�ݕ���,2022/8/25,18:00,36,18
��Ƃ�̍L��,�C�ݕ���,2022/8/25,19:00,23,21
��Ƃ�̍L��,�C�ݕ���,2022/8/25,20:00,25,10
��Ƃ�̍L��,�C�ݕ���,2022/8/25,21:00,21,8
��Ƃ�̍L��,�C�ݕ���,2022/8/25,22:00,6,4
��Ƃ�̍L��,�C�ݕ���,2022/8/25,23:00,2,3
��Ƃ�̍L��,�C�ݕ���,2022/8/26,0:00,1,0
��Ƃ�̍L��,�C�ݕ���,2022/8/26,1:00,2,0
��Ƃ�̍L��,�C�ݕ���,2022/8/26,2:00,0,0
��Ƃ�̍L��,�C�ݕ���,2022/8/26,3:00,1,1
��Ƃ�̍L��,�C�ݕ���,2022/8/26,4:00,1,0
��Ƃ�̍L��,�C�ݕ���,2022/8/26,5:00,5,2
��Ƃ�̍L��,�C�ݕ���,2022/8/26,6:00,4,3
��Ƃ�̍L��,�C�ݕ���,2022/8/26,7:00,9,6
��Ƃ�̍L��,�C�ݕ���,2022/8/26,8:00,22,23
��Ƃ�̍L��,�C�ݕ���,2022/8/26,9:00,55,40
��Ƃ�̍L��,�C�ݕ���,2022/8/26,10:00,61,36
��Ƃ�̍L��,�C�ݕ���,2022/8/26,11:00,111,58
��Ƃ�̍L��,�C�ݕ���,2022/8/26,12:00,93,49
��Ƃ�̍L��,�C�ݕ���,2022/8/26,13:00,83,50
��Ƃ�̍L��,�C�ݕ���,2022/8/26,14:00,78,28
��Ƃ�̍L��,�C�ݕ���,2022/8/26,15:00,72,48
��Ƃ�̍L��,�C�ݕ���,2022/8/26,16:00,118,101
��Ƃ�̍L��,�C�ݕ���,2022/8/26,17:00,65,28
��Ƃ�̍L��,�C�ݕ���,2022/8/26,18:00,34,18
��Ƃ�̍L��,�C�ݕ���,2022/8/26,19:00,37,9
��Ƃ�̍L��,�C�ݕ���,2022/8/26,20:00,15,8